Location: North Evanston
(42.0634°N, 87.6976°W)
Time: 14:44:41
(UTC+00:00)

Vanguard 3 - Pass Details

Date: 15 May 2026
Orbit: 507 x 3204 km, 33.3° (Epoch: 6 June)

Event Time Altitude Azimuth Distance (km) Brightness Sun altitude
Rises 00:24:38 0° 277° (W) 7,087 13.9 5.8°
Reaches altitude 10° 00:29:59 10° 272° (W) 5,898 13.2 4.9°
Maximum altitude 00:45:39 43° 209° (SSW) 2,960 10.1 2.2°
Drops below altitude 10° 00:55:43 10° 142° (SE) 3,858 10.1 0.5°
Sets 00:58:28 0° 135° (SE) 4,524 10.4 0.1°
